COSMOS 2251 DEB, 34796

Orbit data source: Space-Track

COSMOS 2251 DEB, 34796 is space debris in LEO originally from a launch on Wed, 16 Jun 1993 UTC launched from the Plesetsk Missile And Space Complex (PKMTR). The debris from Iridium 33, an American commercial communications satellite, has been tracked extensively since its accidental collision with the defunct Russian satellite Cosmos 2251 in 2009. This event, occurring at high speed in low Earth orbit (LEO), generated thousands of pieces of space debris, significantly increasing the risk of further collisions. The Iridium 33 debris cloud has impacted space traffic management and orbital debris mitigation strategies, making it a subject of ongoing study in space situational awareness.

Loading next visibility...
Identifier
34796, 1993-036AAZ
Orbit
LEO
Country
Flag of CISCIS
Related business
Manufacturer
Unknown
Mission
Spacecraft
Bus & Motor
Unknown
Mass
Unknown
Launch date (UTC)
1993-06-16 (33 years ago)
Launch vehicle
Unknown
Launch site
Plesetsk Missile And Space Complex (PKMTR)
Object type
Payload
Rocket body
Debris
Shape & HBR
Unknown shape, 0.1 m
Radar Cross Section
Small (<0.1 m²)

Expand to show TLE details & history
Last TLE update: 20 hours ago

TLE from 20 hours ago
0 COSMOS 2251 DEB
1 34796U 93036AAZ 26033.28455481  .00003071  00000-0  76638-3 0  9995
2 34796  74.0294 119.6805 0099636 210.6651 206.6647 14.49065427887748
Epoch: 2026-02-02T06:49Z
TLE epoch observation values (Epoch: 2026-02-02T06:49:45.535Z)
Latitude
53.68729°
Longitude
-92.45118°
Altitude
800.591 km
Speed
7.425 km/s
True Right ascension
09h 29m 52s
True Declination
53° 31' 26"
Sunlit
Object was in full shadow at epoch
Visualization orbit readout
Latitude
Unknown
Longitude
Unknown
Altitude
Unknown
Speed
Unknown
Apparent Right ascension
Unknown
Apparent Declination
Unknown
Sunlit
N/A
Visualization observer readout
Local Sidereal Time
04:15:16
Azimuth
Unknown
Elevation
Unknown
Doppler factor
Unknown
Orbital elements
Apogee altitude
797.098 km
Perigee altitude
655.526 km
Semi-major axis
7,104.449 km
Eccentricity
0.00996
Inclination
74.0294°
RAAN
119.6805°
Arg. of periapsis
210.6651°
True anomaly
206.15797°
Mean anomaly
206.6647°
Eccentric anomaly
206.41077°
Mean motion
3.6245 °/min
Orbital period
99.32 mins
BSTAR
0.00076638
Loading maneuver chart data...
Computing Atmospheric mass density...

Documentation

Showing up to 5 results
|